Time,TemperatureF,DewpointF,PressureIn,WindDirection,WindDirectionDegrees,WindSpeedMPH,WindSpeedGustMPH,Humidity,HourlyPrecipIn,Conditions,Clouds,dailyrainin,SoftwareType,DateUTC
2013-02-14 00:00:00,41.3,36.8,30.08,WSW,250,0.0,0.0,84,0.00,,---,0.00,VWS V14.01,2013-02-14 08:00:00,
2013-02-14 00:09:00,41.1,36.6,30.08,WSW,250,0.0,0.0,84,0.00,,---,0.00,VWS V14.01,2013-02-14 08:09:00,
2013-02-14 00:14:00,40.9,36.5,30.08,WSW,250,0.0,0.0,84,0.00,,---,0.00,VWS V14.01,2013-02-14 08:14:00,
2013-02-14 00:19:00,40.8,36.3,30.08,WSW,250,0.0,0.0,84,0.00,,---,0.00,VWS V14.01,2013-02-14 08:19:00,
2013-02-14 00:29:00,40.5,36.0,30.08,WSW,250,0.0,0.0,84,0.00,,---,0.00,VWS V14.01,2013-02-14 08:29:00,
2013-02-14 00:39:00,40.2,35.8,30.08,WSW,250,0.0,0.0,84,0.00,,---,0.00,VWS V14.01,2013-02-14 08:39:00,
2013-02-14 00:44:00,40.1,35.7,30.08,WSW,250,0.0,0.0,84,0.00,,---,0.00,VWS V14.01,2013-02-14 08:44:00,
2013-02-14 00:54:00,39.9,35.8,30.08,WSW,250,0.0,0.0,85,0.00,,---,0.00,VWS V14.01,2013-02-14 08:54:00,
2013-02-14 00:59:00,39.8,35.7,30.07,WSW,250,0.0,0.0,85,0.00,,---,0.00,VWS V14.01,2013-02-14 08:59:00,
2013-02-14 01:04:00,39.8,35.7,30.07,WSW,250,0.0,0.0,85,0.00,,---,0.00,VWS V14.01,2013-02-14 09:04:00,
2013-02-14 01:09:00,39.6,35.5,30.07,WSW,250,0.0,0.0,85,0.00,,---,0.00,VWS V14.01,2013-02-14 09:09:00,
2013-02-14 01:14:00,39.6,35.8,30.08,WSW,250,0.0,0.0,86,0.00,,---,0.00,VWS V14.01,2013-02-14 09:14:00,
2013-02-14 01:19:00,39.6,35.8,30.08,WSW,250,0.0,0.0,86,0.00,,---,0.00,VWS V14.01,2013-02-14 09:19:00,
2013-02-14 01:24:00,39.5,35.7,30.08,WSW,250,0.0,0.0,86,0.00,,---,0.00,VWS V14.01,2013-02-14 09:24:00,
2013-02-14 01:34:00,39.3,35.5,30.08,WSW,250,0.0,0.0,86,0.00,,---,0.00,VWS V14.01,2013-02-14 09:34:00,
2013-02-14 01:39:00,39.3,35.5,30.08,WSW,250,0.0,0.0,86,0.00,,---,0.00,VWS V14.01,2013-02-14 09:39:00,
2013-02-14 01:49:00,39.2,35.4,30.08,WSW,250,0.0,0.0,86,0.00,,---,0.00,VWS V14.01,2013-02-14 09:49:00,
2013-02-14 01:54:00,39.2,35.7,30.08,WSW,250,0.0,0.0,87,0.00,,---,0.00,VWS V14.01,2013-02-14 09:54:00,
2013-02-14 02:04:00,38.9,35.4,30.07,WSW,250,0.0,0.0,87,0.00,,---,0.00,VWS V14.01,2013-02-14 10:04:00,
2013-02-14 02:14:00,38.8,35.3,30.07,WSW,250,0.0,0.0,87,0.00,,---,0.00,VWS V14.01,2013-02-14 10:14:00,
2013-02-14 02:19:00,38.6,35.1,30.07,WSW,250,0.0,0.0,87,0.00,,---,0.00,VWS V14.01,2013-02-14 10:19:00,
2013-02-14 02:24:00,38.6,35.1,30.07,WSW,250,0.0,0.0,87,0.00,,---,0.00,VWS V14.01,2013-02-14 10:24:00,
2013-02-14 02:29:00,38.5,35.0,30.06,WSW,250,0.0,0.0,87,0.00,,---,0.00,VWS V14.01,2013-02-14 10:29:00,
2013-02-14 02:34:00,38.5,35.0,30.06,WSW,250,0.0,0.0,87,0.00,,---,0.00,VWS V14.01,2013-02-14 10:34:00,
2013-02-14 02:44:00,38.2,34.7,30.05,WSW,250,0.0,0.0,87,0.00,,---,0.00,VWS V14.01,2013-02-14 10:44:00,
2013-02-14 02:54:00,38.0,34.5,30.05,WSW,250,0.0,0.0,87,0.00,,---,0.00,VWS V14.01,2013-02-14 10:54:00,
2013-02-14 03:00:00,38.0,34.5,30.05,WSW,250,0.0,0.0,87,0.00,,---,0.00,VWS V14.01,2013-02-14 11:00:00,
2013-02-14 03:09:00,37.9,34.7,30.05,WSW,250,0.0,0.0,88,0.00,,---,0.00,VWS V14.01,2013-02-14 11:09:00,
2013-02-14 03:15:00,37.8,34.6,30.05,WSW,250,0.0,0.0,88,0.00,,---,0.00,VWS V14.01,2013-02-14 11:15:00,
2013-02-14 03:24:00,37.6,34.4,30.05,WSW,250,0.0,0.0,88,0.00,,---,0.00,VWS V14.01,2013-02-14 11:24:00,
2013-02-14 03:30:00,37.6,34.4,30.05,WSW,250,0.0,0.0,88,0.00,,---,0.00,VWS V14.01,2013-02-14 11:30:00,
2013-02-14 03:40:00,37.5,34.3,30.05,WSW,250,0.0,0.0,88,0.00,,---,0.00,VWS V14.01,2013-02-14 11:40:00,
2013-02-14 03:45:00,37.5,34.3,30.06,WSW,250,0.0,0.0,88,0.00,,---,0.00,VWS V14.01,2013-02-14 11:45:00,
2013-02-14 03:54:00,37.5,34.3,30.06,WSW,250,0.0,0.0,88,0.00,,---,0.00,VWS V14.01,2013-02-14 11:54:00,
2013-02-14 04:00:00,37.5,34.3,30.06,WSW,250,0.0,0.0,88,0.00,,---,0.00,VWS V14.01,2013-02-14 12:00:00,
2013-02-14 04:05:00,37.3,34.1,30.06,WSW,250,0.0,0.0,88,0.00,,---,0.00,VWS V14.01,2013-02-14 12:05:00,
2013-02-14 04:10:00,37.3,34.1,30.06,WSW,250,0.0,0.0,88,0.00,,---,0.00,VWS V14.01,2013-02-14 12:10:00,
2013-02-14 04:19:00,37.3,34.1,30.07,WSW,250,0.0,0.0,88,0.00,,---,0.00,VWS V14.01,2013-02-14 12:19:00,
2013-02-14 04:24:00,37.3,34.4,30.07,WSW,250,0.0,0.0,89,0.00,,---,0.00,VWS V14.01,2013-02-14 12:24:00,
2013-02-14 04:29:00,37.2,34.3,30.07,WSW,250,0.0,0.0,89,0.00,,---,0.00,VWS V14.01,2013-02-14 12:29:00,
2013-02-14 04:34:00,37.2,34.3,30.07,WSW,250,0.0,0.0,89,0.00,,---,0.00,VWS V14.01,2013-02-14 12:34:00,
2013-02-14 04:45:00,37.2,34.3,30.07,WSW,250,0.0,0.0,89,0.00,,---,0.00,VWS V14.01,2013-02-14 12:45:00,
2013-02-14 04:50:00,37.2,34.3,30.07,WSW,250,0.0,0.0,89,0.00,,---,0.00,VWS V14.01,2013-02-14 12:50:00,
2013-02-14 04:59:00,37.0,34.1,30.07,WSW,250,0.0,0.0,89,0.00,,---,0.00,VWS V14.01,2013-02-14 12:59:00,
2013-02-14 05:04:00,37.0,34.1,30.07,WSW,250,0.0,0.0,89,0.00,,---,0.00,VWS V14.01,2013-02-14 13:04:00,
2013-02-14 05:09:00,37.0,34.1,30.07,WSW,250,0.0,0.0,89,0.00,,---,0.00,VWS V14.01,2013-02-14 13:09:00,
2013-02-14 05:15:00,36.9,34.0,30.07,WSW,250,0.0,0.0,89,0.00,,---,0.00,VWS V14.01,2013-02-14 13:15:00,
2013-02-14 05:24:00,36.8,33.9,30.07,WSW,250,0.0,0.0,89,0.00,,---,0.00,VWS V14.01,2013-02-14 13:24:00,
2013-02-14 05:29:00,36.8,33.9,30.06,WSW,250,0.0,0.0,89,0.00,,---,0.00,VWS V14.01,2013-02-14 13:29:00,
2013-02-14 05:34:00,36.6,33.7,30.06,WSW,250,0.0,0.0,89,0.00,,---,0.00,VWS V14.01,2013-02-14 13:34:00,
2013-02-14 05:39:00,36.6,33.7,30.06,WSW,250,0.0,0.0,89,0.00,,---,0.00,VWS V14.01,2013-02-14 13:39:00,
2013-02-14 05:44:00,36.6,33.7,30.06,WSW,250,0.0,0.0,89,0.00,,---,0.00,VWS V14.01,2013-02-14 13:44:00,
2013-02-14 05:50:00,36.6,33.7,30.06,WSW,250,0.0,0.0,89,0.00,,---,0.00,VWS V14.01,2013-02-14 13:50:00,
2013-02-14 06:00:00,36.5,33.6,30.06,WSW,250,0.0,0.0,89,0.00,,---,0.00,VWS V14.01,2013-02-14 14:00:00,
2013-02-14 06:05:00,36.5,33.6,30.06,WSW,250,0.0,0.0,89,0.00,,---,0.00,VWS V14.01,2013-02-14 14:05:00,
2013-02-14 06:14:00,36.5,33.6,30.06,WSW,250,0.0,0.0,89,0.00,,---,0.00,VWS V14.01,2013-02-14 14:14:00,
2013-02-14 06:20:00,36.3,33.4,30.06,WSW,250,0.0,0.0,89,0.00,,---,0.00,VWS V14.01,2013-02-14 14:20:00,
2013-02-14 06:29:00,36.3,33.4,30.05,WSW,250,0.0,0.0,89,0.00,,---,0.00,VWS V14.01,2013-02-14 14:29:00,
2013-02-14 06:40:00,36.2,33.3,30.05,WSW,250,0.0,0.0,89,0.00,,---,0.00,VWS V14.01,2013-02-14 14:40:00,
2013-02-14 06:49:00,36.0,33.1,30.05,WSW,250,0.0,0.0,89,0.00,,---,0.00,VWS V14.01,2013-02-14 14:49:00,
2013-02-14 06:55:00,36.0,33.1,30.05,WSW,250,0.0,0.0,89,0.00,,---,0.00,VWS V14.01,2013-02-14 14:55:00,
2013-02-14 07:00:00,36.0,33.1,30.05,WSW,250,0.0,0.0,89,0.00,,---,0.00,VWS V14.01,2013-02-14 15:00:00,
2013-02-14 07:10:00,36.3,33.7,30.05,NNE,27,0.0,0.0,90,0.00,,---,0.00,VWS V14.01,2013-02-14 15:10:00,
2013-02-14 07:15:00,36.5,33.8,30.06,NNE,27,0.0,0.0,90,0.00,,---,0.00,VWS V14.01,2013-02-14 15:15:00,
2013-02-14 07:24:00,37.2,34.5,30.06,NNE,27,0.0,0.0,90,0.00,,---,0.00,VWS V14.01,2013-02-14 15:24:00,
2013-02-14 07:29:00,37.8,35.1,30.07,NNE,27,0.0,0.0,90,0.00,,---,0.00,VWS V14.01,2013-02-14 15:29:00,
2013-02-14 07:35:00,38.3,35.6,30.07,NNE,27,0.0,0.0,90,0.00,,---,0.00,VWS V14.01,2013-02-14 15:35:00,
2013-02-14 07:44:00,43.1,40.1,30.06,NNE,27,0.0,0.0,89,0.00,,---,0.00,VWS V14.01,2013-02-14 15:44:00,
2013-02-14 07:49:00,44.5,39.7,30.06,NE,38,0.0,0.0,83,0.00,,---,0.00,VWS V14.01,2013-02-14 15:49:00,
2013-02-14 07:55:00,45.1,39.6,30.06,NE,42,0.0,0.0,81,0.00,,---,0.00,VWS V14.01,2013-02-14 15:55:00,
2013-02-14 08:00:00,46.2,38.7,30.07,NE,42,0.0,0.0,75,0.00,,---,0.00,VWS V14.01,2013-02-14 16:00:00,
2013-02-14 08:09:00,48.9,38.8,30.07,NNE,31,0.0,0.0,68,0.00,,---,0.00,VWS V14.01,2013-02-14 16:09:00,
2013-02-14 08:14:00,50.4,38.7,30.07,NNE,31,0.0,0.0,64,0.00,,---,0.00,VWS V14.01,2013-02-14 16:14:00,
2013-02-14 08:19:00,51.7,38.3,30.07,NNE,31,0.0,0.0,60,0.00,,---,0.00,VWS V14.01,2013-02-14 16:19:00,
2013-02-14 08:25:00,51.7,39.1,30.07,SSE,158,0.0,0.0,62,0.00,,---,0.00,VWS V14.01,2013-02-14 16:25:00,
2013-02-14 08:34:00,53.1,37.8,30.07,South,189,0.0,0.0,56,0.00,,---,0.00,VWS V14.01,2013-02-14 16:34:00,
2013-02-14 08:39:00,53.3,37.1,30.07,South,189,0.0,0.0,54,0.00,,---,0.00,VWS V14.01,2013-02-14 16:39:00,
2013-02-14 08:44:00,54.2,38.4,30.07,South,189,0.0,0.0,55,0.00,,---,0.00,VWS V14.01,2013-02-14 16:44:00,
2013-02-14 08:50:00,55.1,38.8,30.07,South,189,0.0,0.0,54,0.00,,---,0.00,VWS V14.01,2013-02-14 16:50:00,
2013-02-14 08:55:00,55.9,39.5,30.07,SSW,193,0.0,0.0,54,0.00,,---,0.00,VWS V14.01,2013-02-14 16:55:00,
2013-02-14 09:00:00,55.9,39.0,30.08,SSW,193,0.0,0.0,53,0.00,,---,0.00,VWS V14.01,2013-02-14 17:00:00,
2013-02-14 09:09:00,58.9,39.8,30.08,SSW,198,0.0,0.0,49,0.00,,---,0.00,VWS V14.01,2013-02-14 17:09:00,
2013-02-14 09:14:00,59.8,40.6,30.08,South,188,0.0,0.0,49,0.00,,---,0.00,VWS V14.01,2013-02-14 17:14:00,
2013-02-14 09:19:00,60.1,40.4,30.08,South,188,0.0,0.0,48,0.00,,---,0.00,VWS V14.01,2013-02-14 17:19:00,
2013-02-14 09:25:00,60.5,39.6,30.08,West,275,0.0,2.0,46,0.00,,---,0.00,VWS V14.01,2013-02-14 17:25:00,
2013-02-14 09:35:00,62.1,40.5,30.09,West,264,0.0,3.0,45,0.00,,---,0.00,VWS V14.01,2013-02-14 17:35:00,
2013-02-14 09:45:00,64.2,40.7,30.09,SW,227,0.0,0.0,42,0.00,,---,0.00,VWS V14.01,2013-02-14 17:45:00,
2013-02-14 09:54:00,67.9,39.3,30.09,SSW,209,0.0,0.0,35,0.00,,---,0.00,VWS V14.01,2013-02-14 17:54:00,
2013-02-14 09:59:00,68.6,41.3,30.09,SSW,209,0.0,0.0,37,0.00,,---,0.00,VWS V14.01,2013-02-14 17:59:00,
2013-02-14 10:05:00,69.6,38.5,30.09,SSW,208,0.0,0.0,32,0.00,,---,0.00,VWS V14.01,2013-02-14 18:05:00,
2013-02-14 10:15:00,71.8,40.4,30.09,South,178,0.0,6.0,32,0.00,,---,0.00,VWS V14.01,2013-02-14 18:15:00,
2013-02-14 10:25:00,73.2,38.2,30.09,ESE,120,8.0,17.0,28,0.00,,---,0.00,VWS V14.01,2013-02-14 18:25:00,
2013-02-14 10:35:00,73.9,37.8,30.08,East,89,13.0,13.0,27,0.00,,---,0.00,VWS V14.01,2013-02-14 18:35:00,
2013-02-14 10:40:00,73.7,37.7,30.08,NE,55,2.0,14.0,27,0.00,,---,0.00,VWS V14.01,2013-02-14 18:40:00,
2013-02-14 10:45:00,74.0,38.9,30.08,ESE,116,6.0,14.0,28,0.00,,---,0.00,VWS V14.01,2013-02-14 18:45:00,
2013-02-14 10:50:00,74.2,38.1,30.08,ESE,109,6.0,14.0,27,0.00,,---,0.00,VWS V14.01,2013-02-14 18:50:00,
2013-02-14 11:00:00,74.6,38.5,30.07,East,89,4.0,18.0,27,0.00,,---,0.00,VWS V14.01,2013-02-14 19:00:00,
2013-02-14 11:09:00,74.7,38.5,30.07,NE,56,10.0,14.0,27,0.00,,---,0.00,VWS V14.01,2013-02-14 19:09:00,
2013-02-14 11:14:00,74.7,38.5,30.07,ENE,64,7.0,19.0,27,0.00,,---,0.00,VWS V14.01,2013-02-14 19:14:00,
2013-02-14 11:19:00,74.9,37.7,30.07,East,86,5.0,11.0,26,0.00,,---,0.00,VWS V14.01,2013-02-14 19:19:00,
2013-02-14 11:25:00,75.3,39.0,30.07,ENE,65,5.0,14.0,27,0.00,,---,0.00,VWS V14.01,2013-02-14 19:25:00,
2013-02-14 11:34:00,75.8,38.5,30.05,NE,40,8.0,17.0,26,0.00,,---,0.00,VWS V14.01,2013-02-14 19:34:00,
2013-02-14 11:40:00,75.6,39.3,30.05,NE,41,5.0,18.0,27,0.00,,---,0.00,VWS V14.01,2013-02-14 19:40:00,
2013-02-14 11:49:00,75.6,39.3,30.05,ENE,58,5.0,19.0,27,0.00,,---,0.00,VWS V14.01,2013-02-14 19:49:00,
2013-02-14 11:55:00,75.3,38.1,30.05,NE,34,12.0,19.0,26,0.00,,---,0.00,VWS V14.01,2013-02-14 19:55:00,
2013-02-14 12:04:00,76.1,40.7,30.03,NNE,30,10.0,16.0,28,0.00,,---,0.00,VWS V14.01,2013-02-14 20:04:00,
2013-02-14 12:10:00,76.0,37.7,30.03,NE,49,4.0,10.0,25,0.00,,---,0.00,VWS V14.01,2013-02-14 20:10:00,
2013-02-14 12:20:00,76.8,39.3,30.02,ENE,73,0.0,18.0,26,0.00,,---,0.00,VWS V14.01,2013-02-14 20:20:00,
2013-02-14 12:30:00,76.8,39.3,30.02,NE,40,3.0,14.0,26,0.00,,---,0.00,VWS V14.01,2013-02-14 20:30:00,
2013-02-14 12:35:00,77.0,38.5,30.02,ENE,61,7.0,14.0,25,0.00,,---,0.00,VWS V14.01,2013-02-14 20:35:00,
2013-02-14 12:44:00,77.6,39.0,30.00,ENE,61,3.0,11.0,25,0.00,,---,0.00,VWS V14.01,2013-02-14 20:44:00,
2013-02-14 12:49:00,77.6,39.0,30.00,ENE,68,6.0,14.0,25,0.00,,---,0.00,VWS V14.01,2013-02-14 20:49:00,
2013-02-14 12:55:00,77.6,40.0,30.00,NE,54,6.0,17.0,26,0.00,,---,0.00,VWS V14.01,2013-02-14 20:55:00,
2013-02-14 13:05:00,77.2,38.7,30.00,ENE,65,13.0,18.0,25,0.00,,---,0.00,VWS V14.01,2013-02-14 21:05:00,
2013-02-14 13:15:00,77.4,38.9,29.99,ENE,58,7.0,13.0,25,0.00,,---,0.00,VWS V14.01,2013-02-14 21:15:00,
2013-02-14 13:24:00,77.9,39.3,29.99,SE,124,2.0,20.0,25,0.00,,---,0.00,VWS V14.01,2013-02-14 21:24:00,
2013-02-14 13:29:00,78.1,39.5,29.98,East,97,0.0,18.0,25,0.00,,---,0.00,VWS V14.01,2013-02-14 21:29:00,
2013-02-14 13:34:00,78.3,39.6,29.98,East,80,8.0,18.0,25,0.00,,---,0.00,VWS V14.01,2013-02-14 21:34:00,
2013-02-14 13:39:00,78.5,39.8,29.98,SE,124,6.0,14.0,25,0.00,,---,0.00,VWS V14.01,2013-02-14 21:39:00,
2013-02-14 13:44:00,78.5,38.7,29.97,SE,130,0.0,13.0,24,0.00,,---,0.00,VWS V14.01,2013-02-14 21:44:00,
2013-02-14 13:49:00,79.0,40.2,29.97,ENE,75,2.0,14.0,25,0.00,,---,0.00,VWS V14.01,2013-02-14 21:49:00,
2013-02-14 13:54:00,78.3,38.6,29.97,ENE,59,7.0,16.0,24,0.00,,---,0.00,VWS V14.01,2013-02-14 21:54:00,
2013-02-14 14:00:00,78.5,39.8,29.97,NE,49,7.0,11.0,25,0.00,,---,0.00,VWS V14.01,2013-02-14 22:00:00,
2013-02-14 14:10:00,78.6,38.8,29.97,East,82,8.0,16.0,24,0.00,,---,0.00,VWS V14.01,2013-02-14 22:10:00,
2013-02-14 14:20:00,78.3,37.5,29.97,East,82,13.0,18.0,23,0.00,,---,0.00,VWS V14.01,2013-02-14 22:20:00,
2013-02-14 14:29:00,78.3,37.5,29.97,ESE,106,5.0,15.0,23,0.00,,---,0.00,VWS V14.01,2013-02-14 22:29:00,
2013-02-14 14:35:00,78.5,36.5,29.97,East,92,6.0,14.0,22,0.00,,---,0.00,VWS V14.01,2013-02-14 22:35:00,
2013-02-14 14:44:00,78.6,36.6,29.98,ENE,66,11.0,13.0,22,0.00,,---,0.00,VWS V14.01,2013-02-14 22:44:00,
2013-02-14 14:49:00,78.1,36.2,29.98,ENE,71,6.0,16.0,22,0.00,,---,0.00,VWS V14.01,2013-02-14 22:49:00,
2013-02-14 14:54:00,78.5,36.5,29.98,ENE,66,8.0,12.0,22,0.00,,---,0.00,VWS V14.01,2013-02-14 22:54:00,
2013-02-14 14:59:00,78.3,36.4,29.97,East,79,7.0,13.0,22,0.00,,---,0.00,VWS V14.01,2013-02-14 22:59:00,
2013-02-14 15:09:00,78.1,37.3,29.97,East,82,7.0,13.0,23,0.00,,---,0.00,VWS V14.01,2013-02-14 23:09:00,
2013-02-14 15:15:00,78.1,37.3,29.97,NE,56,6.0,11.0,23,0.00,,---,0.00,VWS V14.01,2013-02-14 23:15:00,
2013-02-14 15:24:00,78.3,37.5,29.97,ENE,65,7.0,11.0,23,0.00,,---,0.00,VWS V14.01,2013-02-14 23:24:00,
2013-02-14 15:30:00,78.1,37.3,29.97,NNE,20,11.0,16.0,23,0.00,,---,0.00,VWS V14.01,2013-02-14 23:30:00,
2013-02-14 15:35:00,77.6,36.9,29.97,NE,49,6.0,13.0,23,0.00,,---,0.00,VWS V14.01,2013-02-14 23:35:00,
2013-02-14 15:44:00,77.6,35.8,29.97,ENE,72,0.0,11.0,22,0.00,,---,0.00,VWS V14.01,2013-02-14 23:44:00,
2013-02-14 15:50:00,77.4,36.7,29.97,NE,41,8.0,16.0,23,0.00,,---,0.00,VWS V14.01,2013-02-14 23:50:00,
2013-02-14 15:55:00,77.4,36.7,29.97,ESE,107,9.0,13.0,23,0.00,,---,0.00,VWS V14.01,2013-02-14 23:55:00,
2013-02-14 16:00:00,77.2,36.6,29.98,East,99,5.0,12.0,23,0.00,,---,0.00,VWS V14.01,2013-02-15 00:00:00,
2013-02-14 16:05:00,77.0,36.4,29.98,ENE,62,9.0,10.0,23,0.00,,---,0.00,VWS V14.01,2013-02-15 00:05:00,
2013-02-14 16:10:00,77.0,36.4,29.98,East,85,6.0,14.0,23,0.00,,---,0.00,VWS V14.01,2013-02-15 00:10:00,
2013-02-14 16:15:00,76.8,37.3,29.98,ENE,66,6.0,8.0,24,0.00,,---,0.00,VWS V14.01,2013-02-15 00:15:00,
2013-02-14 16:25:00,76.5,36.0,29.98,ESE,123,0.0,10.0,23,0.00,,---,0.00,VWS V14.01,2013-02-15 00:25:00,
2013-02-14 16:34:00,76.5,38.1,29.98,NE,48,0.0,2.0,25,0.00,,---,0.00,VWS V14.01,2013-02-15 00:34:00,
2013-02-14 16:40:00,76.1,37.8,29.98,ENE,66,0.0,6.0,25,0.00,,---,0.00,VWS V14.01,2013-02-15 00:40:00,
2013-02-14 16:49:00,75.3,37.1,29.98,ENE,62,5.0,6.0,25,0.00,,---,0.00,VWS V14.01,2013-02-15 00:49:00,
2013-02-14 16:54:00,74.6,37.5,29.98,NNE,24,5.0,7.0,26,0.00,,---,0.00,VWS V14.01,2013-02-15 00:54:00,
2013-02-14 17:00:00,74.4,37.3,29.98,NNE,17,5.0,8.0,26,0.00,,---,0.00,VWS V14.01,2013-02-15 01:00:00,
2013-02-14 17:09:00,73.9,37.8,29.98,NE,45,0.0,0.0,27,0.00,,---,0.00,VWS V14.01,2013-02-15 01:09:00,
2013-02-14 17:15:00,73.9,39.7,29.98,NE,45,0.0,0.0,29,0.00,,---,0.00,VWS V14.01,2013-02-15 01:15:00,
2013-02-14 17:24:00,72.7,43.5,29.98,West,278,0.0,1.0,35,0.00,,---,0.00,VWS V14.01,2013-02-15 01:24:00,
2013-02-14 17:30:00,71.1,44.9,30.00,West,268,0.0,1.0,39,0.00,,---,0.00,VWS V14.01,2013-02-15 01:30:00,
2013-02-14 17:40:00,68.6,45.2,30.00,SSE,165,0.0,0.0,43,0.00,,---,0.00,VWS V14.01,2013-02-15 01:40:00,
2013-02-14 17:45:00,67.4,45.3,30.01,WSW,256,0.0,0.0,45,0.00,,---,0.00,VWS V14.01,2013-02-15 01:45:00,
2013-02-14 17:54:00,65.8,45.0,30.01,SW,220,0.0,0.0,47,0.00,,---,0.00,VWS V14.01,2013-02-15 01:54:00,
2013-02-14 18:00:00,65.0,45.4,30.01,SW,220,0.0,0.0,49,0.00,,---,0.00,VWS V14.01,2013-02-15 02:00:00,
2013-02-14 18:09:00,63.4,45.0,30.01,SW,220,0.0,0.0,51,0.00,,---,0.00,VWS V14.01,2013-02-15 02:09:00,
2013-02-14 18:14:00,62.4,45.1,30.03,NE,44,0.0,0.0,53,0.00,,---,0.00,VWS V14.01,2013-02-15 02:14:00,
2013-02-14 18:19:00,61.6,44.8,30.03,NE,44,0.0,0.0,54,0.00,,---,0.00,VWS V14.01,2013-02-15 02:19:00,
2013-02-14 18:25:00,60.9,45.1,30.03,NE,44,0.0,0.0,56,0.00,,---,0.00,VWS V14.01,2013-02-15 02:25:00,
2013-02-14 18:35:00,59.0,44.7,30.04,NE,42,0.0,0.0,59,0.00,,---,0.00,VWS V14.01,2013-02-15 02:35:00,
2013-02-14 18:45:00,57.6,44.3,30.05,NE,41,0.0,0.0,61,0.00,,---,0.00,VWS V14.01,2013-02-15 02:45:00,
2013-02-14 18:50:00,57.0,44.1,30.05,NE,41,0.0,0.0,62,0.00,,---,0.00,VWS V14.01,2013-02-15 02:50:00,
2013-02-14 19:00:00,56.0,44.4,30.05,NE,44,0.0,0.0,65,0.00,,---,0.00,VWS V14.01,2013-02-15 03:00:00,
2013-02-14 19:09:00,55.4,44.2,30.05,NE,51,0.0,0.0,66,0.00,,---,0.00,VWS V14.01,2013-02-15 03:09:00,
2013-02-14 19:15:00,55.1,44.0,30.06,NE,51,0.0,0.0,66,0.00,,---,0.00,VWS V14.01,2013-02-15 03:15:00,
2013-02-14 19:24:00,54.5,43.8,30.06,NE,51,0.0,0.0,67,0.00,,---,0.00,VWS V14.01,2013-02-15 03:24:00,
2013-02-14 19:29:00,54.2,43.9,30.06,NE,51,0.0,0.0,68,0.00,,---,0.00,VWS V14.01,2013-02-15 03:29:00,
2013-02-14 19:34:00,53.8,43.5,30.06,NE,51,0.0,0.0,68,0.00,,---,0.00,VWS V14.01,2013-02-15 03:34:00,
2013-02-14 19:39:00,53.5,43.6,30.06,NE,51,0.0,0.0,69,0.00,,---,0.00,VWS V14.01,2013-02-15 03:39:00,
2013-02-14 19:45:00,53.1,43.6,30.06,NE,51,0.0,0.0,70,0.00,,---,0.00,VWS V14.01,2013-02-15 03:45:00,
2013-02-14 19:50:00,52.8,43.7,30.06,NE,51,0.0,0.0,71,0.00,,---,0.00,VWS V14.01,2013-02-15 03:50:00,
2013-02-14 19:55:00,52.3,43.5,30.06,NE,51,0.0,0.0,72,0.00,,---,0.00,VWS V14.01,2013-02-15 03:55:00,
2013-02-14 20:05:00,51.9,43.5,30.06,NE,51,0.0,0.0,73,0.00,,---,0.00,VWS V14.01,2013-02-15 04:05:00,
2013-02-14 20:10:00,51.6,43.2,30.06,NE,51,0.0,0.0,73,0.00,,---,0.00,VWS V14.01,2013-02-15 04:10:00,
2013-02-14 20:20:00,51.0,43.0,30.06,NE,51,0.0,0.0,74,0.00,,---,0.00,VWS V14.01,2013-02-15 04:20:00,
2013-02-14 20:25:00,50.7,42.7,30.06,NE,51,0.0,0.0,74,0.00,,---,0.00,VWS V14.01,2013-02-15 04:25:00,
2013-02-14 20:34:00,49.8,42.2,30.06,NE,51,0.0,0.0,75,0.00,,---,0.00,VWS V14.01,2013-02-15 04:34:00,
2013-02-14 20:40:00,49.4,42.2,30.06,NE,51,0.0,0.0,76,0.00,,---,0.00,VWS V14.01,2013-02-15 04:40:00,
2013-02-14 20:45:00,49.1,42.2,30.07,NE,51,0.0,0.0,77,0.00,,---,0.00,VWS V14.01,2013-02-15 04:45:00,
2013-02-14 20:50:00,48.9,42.3,30.07,NE,51,0.0,0.0,78,0.00,,---,0.00,VWS V14.01,2013-02-15 04:50:00,
2013-02-14 20:55:00,48.8,42.3,30.07,NE,51,0.0,0.0,78,0.00,,---,0.00,VWS V14.01,2013-02-15 04:55:00,
2013-02-14 21:00:00,48.5,42.0,30.08,NE,51,0.0,0.0,78,0.00,,---,0.00,VWS V14.01,2013-02-15 05:00:00,
2013-02-14 21:04:00,48.3,42.1,30.08,NE,51,0.0,0.0,79,0.00,,---,0.00,VWS V14.01,2013-02-15 05:04:00,
2013-02-14 21:09:00,48.2,42.0,30.08,NE,51,0.0,0.0,79,0.00,,---,0.00,VWS V14.01,2013-02-15 05:09:00,
2013-02-14 21:15:00,48.2,42.0,30.07,NE,51,0.0,0.0,79,0.00,,---,0.00,VWS V14.01,2013-02-15 05:15:00,
2013-02-14 21:24:00,48.0,42.1,30.07,NE,51,0.0,0.0,80,0.00,,---,0.00,VWS V14.01,2013-02-15 05:24:00,
2013-02-14 21:29:00,47.9,42.4,30.08,NE,51,0.0,0.0,81,0.00,,---,0.00,VWS V14.01,2013-02-15 05:29:00,
2013-02-14 21:35:00,47.7,42.2,30.08,NE,51,0.0,0.0,81,0.00,,---,0.00,VWS V14.01,2013-02-15 05:35:00,
2013-02-14 21:39:00,47.6,42.1,30.08,NE,51,0.0,0.0,81,0.00,,---,0.00,VWS V14.01,2013-02-15 05:39:00,
2013-02-14 21:44:00,47.4,41.9,30.08,NE,51,0.0,0.0,81,0.00,,---,0.00,VWS V14.01,2013-02-15 05:44:00,
2013-02-14 21:49:00,47.3,41.8,30.08,NE,51,0.0,0.0,81,0.00,,---,0.00,VWS V14.01,2013-02-15 05:49:00,
2013-02-14 21:54:00,47.0,41.8,30.08,NE,51,0.0,0.0,82,0.00,,---,0.00,VWS V14.01,2013-02-15 05:54:00,
2013-02-14 21:59:00,46.8,41.6,30.08,NE,51,0.0,0.0,82,0.00,,---,0.00,VWS V14.01,2013-02-15 05:59:00,
2013-02-14 22:05:00,46.7,41.5,30.08,NE,51,0.0,0.0,82,0.00,,---,0.00,VWS V14.01,2013-02-15 06:05:00,
2013-02-14 22:15:00,46.4,41.2,30.08,NE,51,0.0,0.0,82,0.00,,---,0.00,VWS V14.01,2013-02-15 06:15:00,
2013-02-14 22:20:00,46.2,41.3,30.08,NE,51,0.0,0.0,83,0.00,,---,0.00,VWS V14.01,2013-02-15 06:20:00,
2013-02-14 22:25:00,46.2,41.3,30.08,NE,51,0.0,0.0,83,0.00,,---,0.00,VWS V14.01,2013-02-15 06:25:00,
2013-02-14 22:30:00,46.1,41.2,30.07,NE,51,0.0,0.0,83,0.00,,---,0.00,VWS V14.01,2013-02-15 06:30:00,
2013-02-14 22:39:00,46.0,41.1,30.07,NE,51,0.0,0.0,83,0.00,,---,0.00,VWS V14.01,2013-02-15 06:39:00,
2013-02-14 22:44:00,45.8,40.9,30.07,NE,51,0.0,0.0,83,0.00,,---,0.00,VWS V14.01,2013-02-15 06:44:00,
2013-02-14 22:49:00,45.8,40.9,30.07,NE,51,0.0,0.0,83,0.00,,---,0.00,VWS V14.01,2013-02-15 06:49:00,
2013-02-14 22:54:00,46.2,41.3,30.07,NE,51,0.0,0.0,83,0.00,,---,0.00,VWS V14.01,2013-02-15 06:54:00,
2013-02-14 23:00:00,46.8,41.6,30.07,NE,51,0.0,0.0,82,0.00,,---,0.00,VWS V14.01,2013-02-15 07:00:00,
2013-02-14 23:09:00,52.2,42.7,30.07,NE,51,0.0,0.0,70,0.00,,---,0.00,VWS V14.01,2013-02-15 07:09:00,
2013-02-14 23:15:00,53.8,41.9,30.06,NE,51,0.0,0.0,64,0.00,,---,0.00,VWS V14.01,2013-02-15 07:15:00,
2013-02-14 23:20:00,56.5,41.5,30.06,NE,51,0.0,0.0,57,0.00,,---,0.00,VWS V14.01,2013-02-15 07:20:00,
2013-02-14 23:25:00,58.3,40.8,30.06,NE,51,0.0,0.0,52,0.00,,---,0.00,VWS V14.01,2013-02-15 07:25:00,
2013-02-14 23:30:00,59.9,40.2,30.06,NE,51,0.0,0.0,48,0.00,,---,0.00,VWS V14.01,2013-02-15 07:30:00,
2013-02-14 23:39:00,60.1,40.4,30.06,NE,51,0.0,0.0,48,0.00,,---,0.00,VWS V14.01,2013-02-15 07:39:00,
2013-02-14 23:45:00,59.5,39.8,30.07,NE,51,0.0,0.0,48,0.00,,---,0.00,VWS V14.01,2013-02-15 07:45:00,
2013-02-14 23:55:00,58.0,38.4,30.07,NE,51,0.0,0.0,48,0.00,,---,0.00,VWS V14.01,2013-02-15 07:55:00,